Weather in Shonguy

Russia / Murmansk Oblast     68°44′35″N   33°09′18″E
temp.,
°C
wind,
m/s
gust,
m/s
humid.,
%
clouds,
%
prec.,
mm/h
press.,
hPa
HPBL,
m
21 january, fri
fri2100:00−12wnw119992 0.4 98912
03:00−16sw119999 0.5 99212
06:00−7nnw2896100 1.2 995298
09:00−3n61293100 2.5 10001102
12:00−5nnw4118454 0.3 1004556
15:00−15wnw119857 0.3 10099
18:00−17w1110098 0.0 10129
21:00−17wsw11100100 0.1 101411
22 january, sat
sat2200:00−17sw1110098 0.0 101714
03:00−19sw1110094 0.1 101811
06:00−21ssw2110092 0.0 101914
09:00−20s22100100 0.0 101932
12:00−18s2510096 0.0 101967
15:00−17s369964 0.0 101971
18:00−15s3894100 0.0 1018132
21:00−13s41192100 0.0 1016229
23 january, sun
sun2300:00−13s51392100 0.0 1014321
03:00−12ssw51790100 0.0 1010469
06:00−10s72083100 0.0 1006660
09:00−8ssw51586100 0.0 1007553
12:00−8ssw51390100 0.1 1007409
15:00−10s3894100 0.1 1008157
18:00−8s51395100 0.0 1006250
21:00−3ssw61693100 0.0 1003569
24 january, mon
mon2400:000ssw71794100 0.0 1001692
03:00+2sw81795100 0.0 999823
06:00+3sw81691100 0.0 997966
09:00+3sw81789100 0.0 9971023
12:00+3sw71588100 0.0 996853
15:00+2sw71592100 0.4 993912
18:000ssw71597100 2.1 991866
21:000sw6129396 3.6 990732
25 january, tue
tue2500:00−2wsw4129023 0.0 992494
03:00−7s229568 0.0 99314
06:00−9s2297100 0.0 99427
09:00−4wnw51395100 1.3 996797
12:00−6wnw5138638 0.3 1000551
15:00−6wnw6158889 0.3 1002567
18:00−4wnw61495100 0.8 10041243
21:00−5nw6148482 1.0 1007816